Regional Weather Roundup
Issued by NWS Goodland, KS

Home | Current Version | Previous Version | Graphics & Text | Print | Product List | Glossary On
Versions: 1 2 3 4 5 6 7 8 9 10 11 12 13 14 15 16 17 18 19 20 21 22 23 24 25 26 27 28 29 30 31 32 33 34 35 36 37 38 39 40 41 42 43 44 45 46 47 48 49 50
000
ASUS43 KGLD 160859
RWRGLD

GOODLAND FORECAST AREA HOURLY WEATHER ROUNDUP
NATIONAL WEATHER SERVICE GOODLAND KS
300 AM MDT TUE SEP 16 2014

...OFFICIAL OBSERVATIONS...

CITY           SKY/WX    TMP DP  RH WIND       PRES   REMARKS
GOODLAND KS    CLOUDY    57  54  89 S10       30.23F
HILL CITY KS   CLEAR     45  41  86 CALM      30.25F
IMPERIAL NEB   MOCLDY    51  45  79 SE9       30.19F
MCCOOK NEB     CLEAR     49  43  80 S6        30.23F
AKRON CO       CLEAR     52  50  93 S16G25    30.17F
BURLINGTON CO  CLEAR     55  50  83 S12       30.23F
LIMON CO       CLOUDY    53  51  93 S16       30.26F
$$

...UNOFFICIAL OBSERVATIONS...

CITY           SKY/WX    TMP DP  RH WIND       PRES   REMARKS
COLBY KS       MOCLDY    54  52  94 SE10      30.25S
NORTON KS      CLEAR     48  41  76 SE5       30.23F
SHARON SPRINGS   N/A     59  55  88 S5          N/A
WAKEENEY KS      N/A     49  44  82 MISG        N/A
TRENTON NEB      N/A     49  32  52 S6          N/A
YUMA CO          N/A     52  49  90 CALM        N/A
$$


USA.gov is the U.S. government's official web portal to all federal, state and local government web resources and services.